This is the latest recevied weather packets stored in our database for station/object KC5DAQ-27. If no packets are shown the sender has not sent any weather packets the latest 10 day(s).
| Time | Temp. | Humidity | Pressure | Rain* | Wind** | Luminosity | Snow |
|---|---|---|---|---|---|---|---|
| 1777675922 | 15° C | 98% | 1002.2 hPa | 1.52 mm | - | 77 W/m² | - |
| 1777675862 | 15° C | 98% | 1002.4 hPa | 1.78 mm | - | 69 W/m² | - |
| 1777675805 | 15° C | 98% | 1002.4 hPa | 1.52 mm | - | 55 W/m² | - |
| 1777675742 | 15° C | 98% | 1002.5 hPa | 1.52 mm | - | 49 W/m² | - |
| 1777675682 | 15° C | 97% | 1002.6 hPa | 1.52 mm | - | 49 W/m² | - |
| 1777675623 | 15° C | 98% | 1002.6 hPa | 1.52 mm | - | 42 W/m² | - |
| 1777675563 | 15° C | 98% | 1002.8 hPa | 1.52 mm | - | 42 W/m² | - |
| 1777675503 | 15.56° C | 98% | 1002.8 hPa | 1.52 mm | - | 40 W/m² | - |
| 1777675442 | 15.56° C | 98% | 1002.8 hPa | 1.52 mm | - | 42 W/m² | - |
| 1777675383 | 15.56° C | 98% | 1002.9 hPa | 1.52 mm | - | 32 W/m² | - |
| 1777675322 | 15.56° C | 98% | 1003 hPa | 1.52 mm | - | 28 W/m² | - |
| 1777675263 | 15.56° C | 98% | 1003.1 hPa | 1.52 mm | - | 21 W/m² | - |
| 1777675203 | 15.56° C | 98% | 1003.1 hPa | 1.27 mm | - | 18 W/m² | - |
| 1777675142 | 15.56° C | 98% | 1002.9 hPa | 1.52 mm | - | 16 W/m² | - |
| 1777675082 | 15.56° C | 98% | 1002.8 hPa | 1.52 mm | - | 14 W/m² | - |
| 1777675022 | 15.56° C | 98% | 1002.7 hPa | 1.52 mm | - | 14 W/m² | - |
| 1777674963 | 15.56° C | 98% | 1002.5 hPa | 1.52 mm | - | 16 W/m² | - |
| 1777674902 | 15.56° C | 98% | 1002.3 hPa | 1.52 mm | - | 16 W/m² | - |
| 1777674840 | 15.56° C | 98% | 1002.1 hPa | 1.52 mm | - | 14 W/m² | - |
| 1777674779 | 15.56° C | 98% | 1002.1 hPa | 1.52 mm | - | 16 W/m² | - |
| 1777674717 | 15.56° C | 98% | 1002 hPa | 1.52 mm | - | 16 W/m² | - |
| 1777674655 | 15.56° C | 98% | 1001.9 hPa | 1.52 mm | - | 16 W/m² | - |
| 1777674595 | 15.56° C | 98% | 1001.8 hPa | 1.52 mm | - | 18 W/m² | - |
| 1777674533 | 15.56° C | 98% | 1001.8 hPa | 1.52 mm | - | 14 W/m² | - |
| 1777674472 | 15.56° C | 98% | 1001.7 hPa | 1.52 mm | - | 16 W/m² | - |
* Rain latest hour (hover to see other rain measurements)
** Current wind speed in m/s (hover to see current wind gust speed)